Powrót do katalogu

FENGYUN 1C DEB

AktywnyPO
NORAD 32185·DEBRIS·🇨🇳 China

Wystrzelony May 10, 1999 z Taiyuan Satellite Launch Center

Loading…

Następne Przeloty (najbliższe 24 godziny)

TLE

ŚwieżeSource: Space-Track

Epoka: Sep 11, 2026, 22:40 UTC

1 32185U 99025CUF 26254.94496553  .00384062  00000-0  36493-2 0  9998
2 32185  98.8550 158.0822 0048416 159.2410 201.0825 15.64224715991854

Śledź FENGYUN 1C DEB w czasie rzeczywistym z AllMySat

Download on the App Store